User: anonymous   Login
Location: Nickerson Gardens
(33.9320°N, 118.2484°W)
Time: 14:56:33
(UTC+00:00)
Language:

ITUPSAT 1 - Orbit

View from above orbital plane
View from above orbital plane
View from above satellite
View from above satellite

Ground track
Ground track

The orbit data is extracted from the following two-line orbital elements,

1 35935U 09051E   21110.10657951  .00000146  00000-0  44669-4 0  9993
2 35935  98.6143 310.2665 0006899 282.8722  77.1703 14.55710669614318
Epoch (UTC): 20 April 2021 02:33:28
Eccentricity: 0.0006899
inclination: 98.6143°
perigee height: 702 km
apogee height: 712 km
right ascension of ascending node: 310.2665°
argument of perigee: 282.8722°
revolutions per day: 14.55710669
mean anomaly at epoch: 77.1703°
orbit number at epoch: 61431

The dashed part of the orbit path shows where the satellite is in the earth's shadow,  

DLR